Dublin, Ireland

7:05 AM GMT on February 18, 2018 (GMT +0000)
Dublin International

Weather History for EIDW - November, 2012

Change the Weather History Date:

Sunday, November 4, 2012

  Actual Average Record
Temperature  
Mean Temperature 42 °F -  
Max Temperature 46 °F 50 °F 60 °F (2003)
Min Temperature 39 °F 40 °F 31 °F (2013)
Degree Days  
Heating Degree Days 22    
Moisture  
Dew Point 37 °F    
Average Humidity 77    
Maximum Humidity 93    
Minimum Humidity 52    
Precipitation  
Precipitation 0.20 in 0.09 in - ()
Sea Level Pressure  
Sea Level Pressure 29.26 in    
Wind  
Wind Speed 12 mph ()    
Max Wind Speed 18 mph    
Max Gust Speed 28 mph    
Visibility 7.0 miles    
Events Rain    
Averages and records for this station are not official NWS values.
T = Trace of Precipitation, MM = Missing Value Source: Averaged Metar Reports

Daily Weather History Graph

Daily Weather History Graph

Search for Another Location

Airport or City:

Trip Planner

Search our weather history database for the weather conditions in past years. The results will help you decide how hot, cold, wet, or windy it might be!

Date:

Astronomy

Nov. 04, 2012 Rise Set
Actual Time 7:30 AM GMT 4:46 PM GMT
Civil Twilight 6:52 AM GMT 5:23 PM GMT
Nautical Twilight 6:11 AM GMT 6:05 PM GMT
Astronomical Twilight 5:30 AM GMT 6:45 PM GMT
Moon 9:01 PM GMT (11/4) 12:16 PM GMT (11/4)
Length of Visible Light 10h 30m
Length of Day
9h 15m
Waning Gibbous, 74% of the Moon is Illuminated
Nov 4
Waning Gibbous
Nov 7
Last Quarter
Nov 13
New
Nov 20
First Quarter
Nov 28
Full

Hourly Weather History & Observations

Time (GMT) Temp. Windchill Dew Point Humidity Pressure Visibility Wind Dir Wind Speed Gust Speed Precip Events Conditions
12:00 AM 44 °F - 32 °F 52% 29.24 in 19 mi South 13.4 mph - -   Scattered Clouds
12:00 AM 44.6 °F 38.4 °F 32.0 °F 61% 29.21 in 6.2 mi South 12.7 mph - N/A   Mostly Cloudy
12:30 AM 42.8 °F 35.4 °F 32.0 °F 66% 29.21 in 6.2 mi South 15.0 mph - N/A   Mostly Cloudy
1:00 AM 44.6 °F 38.4 °F 33.8 °F 66% 29.21 in 6.2 mi South 12.7 mph - N/A   Mostly Cloudy
1:30 AM 44.6 °F 38.4 °F 33.8 °F 66% 29.21 in 6.2 mi South 12.7 mph - N/A   Mostly Cloudy
2:00 AM 44.6 °F 38.4 °F 33.8 °F 66% 29.21 in 6.2 mi South 12.7 mph - N/A   Mostly Cloudy
2:30 AM 42.8 °F 37.0 °F 33.8 °F 70% 29.18 in 6.2 mi SSE 10.4 mph - N/A   Mostly Cloudy
3:00 AM 44.6 °F 39.7 °F 33.8 °F 66% 29.18 in 6.2 mi SSE 9.2 mph - N/A   Mostly Cloudy
3:30 AM 44.6 °F 40.2 °F 33.8 °F 66% 29.18 in 6.2 mi SSE 8.1 mph - N/A   Mostly Cloudy
4:00 AM 44.6 °F 40.2 °F 33.8 °F 66% 29.18 in 6.2 mi SSE 8.1 mph - N/A   Mostly Cloudy
4:30 AM 44.6 °F 38.4 °F 33.8 °F 66% 29.18 in 6.2 mi South 12.7 mph - N/A   Mostly Cloudy
5:00 AM 44.6 °F 38.8 °F 35.6 °F 71% 29.15 in 6.2 mi South 11.5 mph - N/A   Mostly Cloudy
5:30 AM 44.6 °F 40.2 °F 35.6 °F 71% 29.18 in 6.2 mi South 8.1 mph - N/A   Mostly Cloudy
6:00 AM 44 °F - 35 °F 63% 29.18 in 19 mi South 15.7 mph - - Rain Light Rain Showers
6:00 AM 44.6 °F 38.1 °F 35.6 °F 71% 29.15 in 6.2 mi South 13.8 mph - N/A   Mostly Cloudy
6:30 AM 44.6 °F 38.1 °F 35.6 °F 71% 29.15 in 6.2 mi South 13.8 mph - N/A Rain Light Rain Showers
7:00 AM 44.6 °F 38.4 °F 37.4 °F 76% 29.15 in 6.2 mi South 12.7 mph - N/A Rain Light Rain Showers
7:30 AM 44.6 °F 38.4 °F 37.4 °F 76% 29.18 in 6.2 mi South 12.7 mph - N/A Rain Light Rain Showers
8:00 AM 42.8 °F 37.5 °F 39.2 °F 87% 29.18 in 6.2 mi South 9.2 mph - N/A Rain Light Rain Showers
8:30 AM 41.0 °F 35.8 °F 39.2 °F 93% 29.18 in 6.2 mi South 8.1 mph - N/A Rain Light Rain
9:00 AM 42.8 °F 38.0 °F 39.2 °F 87% 29.18 in 6.2 mi SSE 8.1 mph - N/A Rain Light Rain
9:30 AM 41.0 °F 33.1 °F 39.2 °F 93% 29.18 in 6.2 mi SSE 15.0 mph 27.6 mph N/A Rain Light Rain
10:00 AM 41.0 °F 33.5 °F 39.2 °F 93% 29.18 in 6.2 mi SE 13.8 mph - N/A Rain Light Rain
10:30 AM 42.8 °F 35.4 °F 39.2 °F 87% 29.21 in 6.2 mi SE 15.0 mph - N/A Rain Light Rain
11:00 AM 42.8 °F 35.1 °F 39.2 °F 87% 29.21 in 6.2 mi SE 16.1 mph - N/A Rain Light Rain
11:30 AM 42.8 °F 38.6 °F 41.0 °F 93% 29.21 in 6.2 mi ESE 6.9 mph - N/A Rain Light Rain
12:00 PM 43 °F - 41 °F 92% 29.23 in 12 mi SE 8.9 mph - - Rain Light Rain
12:00 PM 42.8 °F 37.0 °F 41.0 °F 93% 29.21 in 6.2 mi SE 10.4 mph - N/A Rain Light Rain
12:30 PM 44.6 °F 39.7 °F 42.8 °F 93% 29.21 in 6.2 mi SSE 9.2 mph - N/A Rain Light Rain
1:00 PM 44.6 °F 37.2 °F 41.0 °F 87% 29.21 in 6.2 mi SE 17.3 mph - N/A   Mostly Cloudy
1:30 PM 44.6 °F 38.1 °F 41.0 °F 87% 29.21 in 6.2 mi SE 13.8 mph - N/A   Mostly Cloudy
2:00 PM 46.4 °F 40.1 °F 41.0 °F 81% 29.24 in 6.2 mi SE 15.0 mph - N/A   Mostly Cloudy
2:30 PM 46.4 °F 41.9 °F 41.0 °F 81% 29.24 in 6.2 mi ESE 9.2 mph - N/A   Mostly Cloudy
3:00 PM 46.4 °F 41.5 °F 39.2 °F 76% 29.24 in 6.2 mi ESE 10.4 mph - N/A   Mostly Cloudy
3:30 PM 46.4 °F 41.1 °F 39.2 °F 76% 29.24 in 6.2 mi East 11.5 mph - N/A   Mostly Cloudy
4:00 PM 42.8 °F 36.6 °F 39.2 °F 87% 29.27 in 5.6 mi East 11.5 mph - N/A Rain Light Rain Showers
4:30 PM 42.8 °F 37.5 °F 39.2 °F 87% 29.27 in 6.2 mi ESE 9.2 mph - N/A   Mostly Cloudy
5:00 PM 44.6 °F 37.8 °F 39.2 °F 81% 29.27 in 6.2 mi East 15.0 mph - N/A   Mostly Cloudy
5:30 PM 44.6 °F 38.4 °F 39.2 °F 81% 29.30 in 6.2 mi East 12.7 mph - N/A   Mostly Cloudy
6:00 PM 45 °F - 38 °F 69% 29.34 in 19 mi East 11.2 mph - -   Partly Cloudy
6:00 PM 44.6 °F 39.2 °F 37.4 °F 76% 29.33 in 6.2 mi East 10.4 mph - N/A   Mostly Cloudy
6:30 PM 44.6 °F 38.1 °F 37.4 °F 76% 29.33 in 6.2 mi East 13.8 mph - N/A   Scattered Clouds
7:00 PM 42.8 °F 35.8 °F 37.4 °F 81% 29.36 in 6.2 mi ENE 13.8 mph - N/A   Scattered Clouds
7:30 PM 44.6 °F 37.2 °F 39.2 °F 81% 29.36 in 6.2 mi East 17.3 mph - N/A   Mostly Cloudy
8:00 PM 44.6 °F 37.2 °F 39.2 °F 81% 29.39 in 6.2 mi East 17.3 mph - N/A   Scattered Clouds
8:30 PM 44.6 °F 37.2 °F 37.4 °F 76% 29.42 in 6.2 mi ENE 17.3 mph - N/A   Scattered Clouds
9:00 PM 44.6 °F 37.4 °F 39.2 °F 81% 29.42 in 6.2 mi ENE 16.1 mph - N/A   Mostly Cloudy
9:30 PM 46.4 °F 39.2 °F 37.4 °F 71% 29.44 in 6.2 mi ENE 18.4 mph - N/A   Mostly Cloudy
10:00 PM 46.4 °F 39.2 °F 37.4 °F 71% 29.44 in 6.2 mi ENE 18.4 mph - N/A   Mostly Cloudy
10:30 PM 44.6 °F 37.4 °F 35.6 °F 71% 29.47 in 6.2 mi ENE 16.1 mph - N/A   Mostly Cloudy
11:00 PM 44.6 °F 38.4 °F 35.6 °F 71% 29.50 in 6.2 mi ENE 12.7 mph - N/A   Scattered Clouds
11:30 PM 44.6 °F 38.1 °F 37.4 °F 76% 29.50 in 6.2 mi ENE 13.8 mph - N/A   Scattered Clouds